Regional Weather Roundup
Issued by NWS Upton, NY

Current Version | Previous Version | Text Only | Print | Product List | Glossary On
Versions: 1 2 3 4 5 6 7 8 9 10 11 12 13 14 15 16 17 18 19 20 21 22 23 24 25 26 27
000 ASUS41 KOKX 261009 RWROKX REGIONAL WEATHER ROUNDUP NATIONAL WEATHER SERVICE NEW YORK NY 600 AM EDT MON JUN 26 2017 NOTE: "FAIR" INDICATES FEW OR NO CLOUDS BELOW 12,000 FEET WITH NO SIGNIFICANT WEATHER AND/OR OBSTRUCTIONS TO VISIBILITY. NYZ071-072-176-178-NJZ106-104-261100- NEW YORK CITY METRO AREA CITY SKY/WX TMP DP RH WIND PRES REMARKS Central Park CLEAR 64 51 62 W5 30.04R Bronx Bot Gard N/A 63 48 59 CALM 30.04R LaGuardia APRT CLEAR 67 52 58 NW7 30.01R Kennedy INTL PTCLDY 66 51 58 CALM 30.02R Breezy Point N/A 64 N/A N/A W3 N/A Newark/Liberty CLEAR 64 51 62 W5 30.02R Teterboro NOT AVBL $$ NYZ177-179-078>081-261100- LONG ISLAND NEW YORK CITY SKY/WX TMP DP RH WIND PRES REMARKS Jones Beach N/A 64 N/A N/A NW3 N/A Matinecock PT NOT AVBL Farmingdale NOT AVBL MacArthur/ISP NOT AVBL Shirley NOT AVBL Mt Sinai Harb N/A 61 N/A N/A MISG N/A Westhampton NOT AVBL East Hampton FAIR 53 52 97 CALM 30.00R Montauk N/A 60 59 96 CALM 30.01R $$ NYZ052-065-067-261100- HUDSON VALLEY CITY SKY/WX TMP DP RH WIND PRES REMARKS White Plains CLEAR 61 52 72 W3 30.02R Larchmont Harb N/A 63 N/A N/A SW1 N/A Croton O-T Hud N/A 59 N/A N/A E2 N/A Newburgh CLEAR 54 54 100 W9 30.03R Montgomery NOT AVBL Poughkeepsie NOT AVBL Albany PTCLDY 53 52 96 SW5 29.99R $$ NJZ001-105-106-008-010-013-015-019>022-104-261100- NEW JERSEY CITY SKY/WX TMP DP RH WIND PRES REMARKS Newark/Liberty CLEAR 64 51 62 W5 30.02R Teterboro NOT AVBL Caldwell NOT AVBL Somerville NOT AVBL Linden FAIR 62 51 65 CALM 30.03R Perth Amboy N/A 64 N/A N/A W6 N/A Sussex NOT AVBL Andover N/A 52 51 97 SW3 30.04R Trenton NOT AVBL Millville NOT AVBL Atlantic City CLEAR 61 53 75 CALM 30.03R Wrightstown CLEAR 58 55 90 CALM 30.04R Toms River NOT AVBL Belmar NOT AVBL $$ PAZ047>061-062-071-261100- EASTERN PENNSYLVANIA CITY SKY/WX TMP DP RH WIND PRES REMARKS Philadelphia PTCLDY 64 50 60 CALM 30.04R Allentown NOT AVBL Scranton NOT AVBL $$ CTZ002-004>006-009-010-012-RIZ004-006-007-MAZ004-011-015-261100- SOUTHERN NEW ENGLAND IN CT CITY SKY/WX TMP DP RH WIND PRES REMARKS Bradley INTL CLEAR 56 53 90 W5 29.99R Hartford CLEAR 58 56 93 CALM 29.99R Danbury NOT AVBL Wtrbury/Oxford CLEAR 54 46 76 CALM 30.01R Bridgeport NOT AVBL Meriden CLEAR 54 53 97 CALM 30.00R New Haven CLEAR 63 55 77 CALM 30.00 Chester FAIR 59 54 82 CALM 30.00R Groton CLEAR 60 57 89 CALM 29.99R Wilimantic CLEAR 59 55 87 S3 29.99R IN RI CITY SKY/WX TMP DP RH WIND PRES REMARKS Providence PTCLDY 61 56 83 W6 29.99R Block Island CLEAR 62 57 83 NW5 30.00R Westerly CLEAR 61 57 87 CALM 29.99R IN MA CITY SKY/WX TMP DP RH WIND PRES REMARKS Boston PTCLDY 63 53 70 W10 29.95R Worcester CLEAR 55 50 83 W10 29.98R Westfield CLEAR 54 52 93 CALM N/A Provincetown MOCLDY 63 55 75 W10 29.95R Nantucket PTCLDY 64 61 90 NW6 29.96R $$ ANZ330-335-338-340-345-350-353-355-261100- COASTAL MARINE OBSERVATIONS STATION/POSITION TIME SKY/WX TEMP WIND PRES VSBY WAVE AIR SEA DIR/SP/G HT/PER (UTC) (F) (DEG/KT/KT) (MB) (MI) (FT/S) NY HARB ENTRANCE 0950 67 67 310/ 4/ 6 1016.4 2/ 8 20 S FIRE ISLAND 0950 68 69 330/ 8/ 8 1015.9 3/ 7 GREAT SOUTH BAY 0845 67 76 290/ 4/ 6 N/A 23 SSW MONTAUK P 0850 65 64 1015.3 3/ 7 15 E BARNEGAT LI 0930 65 N/A 2/ 7 HUDSON CANYON 0950 68 67 10/ 10/ 12 1015.7 3/ 7 KINGS POINT 0930 65 65 340/ 2/ 3 1016.0 EXECUTION ROCKS 0945 65 CALM / 2 N/A CENTRAL LI SOUND NOT AVBL EASTERN LI SOUND NOT AVBL ROBBINS REEF 0924 290/ 5/ 6 1016.7 $$ >>>>>>>>>>>>>>>>>>>>>>>>>>>> KEY <<<<<<<<<<<<<<<<<<<<<<<<<<< > < > SKY/WX - Sky Condition/Present Weather < > TMP - Temperature in Fahrenheit < > DP - Dew Point in Fahrenheit < > RH - Relative Humidity in Percent < > WIND - Direction (from) and Speed in MPH < > PRES - Mean Sea Level Pressure (inches of Hg) < > WCI - Wind Chill Index < > VSB - VISIBILITY IN MILES < > HX - HEAT INDEX < > TC - TEMPERATURE IN CELSIUS < > VRB - VARIABLE WIND DIRECTION < > < >>>>>>>>>>>>>>>>>>>>>>>>>>>> KEY <<<<<<<<<<<<<<<<<<<<<<<<<<<

USA.gov is the U.S. government's official web portal to all federal, state and local government web resources and services.